FW3096 Weather Reports


Display with metric or nautical units.
time (UTC)temp
F
wind
direction
speed
MPH
gust
MPH
rain 1hr
in
rain 24hr
in
rain mn
in
humidity
%
barometer
mb
20260903161504 82 284 3.0 9.0 0.00 0.79 0.68 83 1016.8
20260903161006 82 123 1.0 7.0 0.00 0.79 0.68 85 1016.9
20260903160504 81 282 2.0 7.0 0.00 0.79 0.68 85 1017.1
20260903155504 81 287 2.0 5.0 0.00 0.79 0.68 85 1017.0
20260903155007 81 248 0.0 8.0 0.00 0.79 0.68 86 1017.0
20260903154505 81 251 2.0 8.0 0.00 0.79 0.68 85 1017.1
20260903154006 81 125 1.0 10.0 0.00 0.79 0.68 85 1017.2
20260903153506 82 5 2.0 10.0 0.00 0.79 0.68 85 1017.3
20260903153005 81 299 1.0 6.0 0.00 0.79 0.68 87 1017.3
20260903152506 81 334 1.0 5.0 0.00 0.79 0.68 87 1017.4
20260903152006 80 164 1.0 11.0 0.00 0.79 0.68 88 1017.5
20260903151505 79 266 5.0 11.0 0.00 0.79 0.68 88 1017.6
20260903151005 79 296 2.0 6.0 0.00 0.79 0.68 89 1017.6
20260903150008 79 149 2.0 7.0 0.00 0.79 0.68 88 1017.2
20260903145505 79 77 2.0 7.0 0.00 0.79 0.68 88 1017.2
20260903145005 79 311 3.0 9.0 0.00 0.79 0.68 90 1017.1
20260903144508 79 281 3.0 9.0 0.00 0.79 0.68 89 1017.1
20260903144005 78 24 1.0 8.0 0.00 0.79 0.68 90 1016.9
20260903143504 78 297 1.0 8.0 0.00 0.79 0.68 91 1016.7
20260903143007 78 42 2.0 5.0 0.00 0.79 0.68 91 1016.8
20260903142005 77 246 2.0 5.0 0.00 0.79 0.68 93 1016.9
20260903141506 76 250 1.0 9.0 0.00 0.79 0.68 93 1017.0
20260903140505 76 351 1.0 5.0 0.00 0.79 0.68 94 1017.1
20260903140007 76 344 3.0 8.0 0.00 0.79 0.68 95 1017.0
20260903135005 76 265 3.0 7.0 0.00 0.79 0.68 96 1016.8
20260903134505 75 196 1.0 5.0 0.00 0.79 0.68 97 1016.8
20260903134007 75 234 2.0 5.0 0.00 0.79 0.68 98 1016.7
20260903133505 74 131 0.0 3.0 0.00 0.79 0.68 99 1016.6
20260903133005 74 173 1.0 4.0 0.00 0.79 0.68 99 1016.6
20260903131504 73 192 2.0 4.0 0.00 0.79 0.68 100 1016.3
20260903131006 73 280 1.0 6.0 0.00 0.79 0.68 99 1016.3
20260903130504 72 323 1.0 6.0 0.00 0.79 0.68 99 1016.5
20260903130005 72 250 1.0 3.0 0.00 0.79 0.68 99 1016.6
20260903125006 72 242 2.0 4.0 0.00 0.79 0.68 99 1016.6
20260903124504 72 214 2.0 4.0 0.00 0.79 0.68 99 1016.5
20260903124007 72 11 1.0 7.0 0.00 0.79 0.68 99 1016.5
20260903123504 72 317 2.0 7.0 0.00 0.79 0.68 99 1016.7
20260903123005 72 48 1.0 4.0 0.00 0.79 0.68 99 1016.8
20260903122505 71 185 1.0 8.0 0.00 0.79 0.68 99 1016.8
20260903121504 71 322 1.0 3.0 0.00 0.79 0.68 99 1016.9
20260903121006 71 159 1.0 5.0 0.00 0.79 0.68 99 1016.8
20260903120504 71 204 1.0 5.0 0.00 0.79 0.68 99 1016.7
20260903120006 71 58 2.0 4.0 0.00 0.79 0.68 99 1016.3
20260903115504 71 87 1.0 4.0 0.00 0.79 0.68 99 1016.5
20260903115007 71 183 1.0 4.0 0.00 0.79 0.68 99 1017.1
20260903114504 71 233 1.0 3.0 0.01 0.79 0.68 99 1017.6
20260903114009 71 221 1.0 2.0 0.01 0.79 0.68 99 1017.8
20260903113005 70 218 0.0 2.0 0.01 0.79 0.68 99 1017.8
20260903112504 71 218 0.0 2.0 0.01 0.79 0.68 99 1017.6
20260903112006 71 278 0.0 2.0 0.01 0.79 0.68 99 1017.8
20260903111504 70 278 0.0 1.0 0.01 0.79 0.68 99 1018.2
20260903111006 70 279 0.0 2.0 0.01 0.79 0.68 99 1018.3
20260903110504 70 279 1.0 2.0 0.01 0.79 0.68 99 1018.3
20260903110008 70 279 1.0 3.0 0.01 0.79 0.68 99 1018.5
20260903105505 70 279 1.0 3.0 0.01 0.79 0.68 99 1018.5
20260903105005 70 279 1.0 2.0 0.01 0.79 0.68 99 1018.5
20260903104504 70 279 1.0 2.0 0.00 0.78 0.67 99 1018.5
20260903104010 70 279 1.0 2.0 0.00 0.78 0.67 99 1018.4
20260903103504 70 279 1.0 2.0 0.00 0.78 0.67 99 1018.2
20260903103005 70 279 0.0 1.0 0.01 0.78 0.67 99 1018.0
20260903102509 70 279 0.0 0.0 0.01 0.78 0.67 99 1017.6
20260903102005 70 279 0.0 0.0 0.01 0.78 0.67 99 1017.5
20260903101504 70 279 0.0 0.0 0.01 0.78 0.67 99 1017.9
20260903101005 70 279 0.0 0.0 0.01 0.78 0.67 99 1018.0
20260903100504 70 279 0.0 0.0 0.01 0.78 0.67 99 1018.0
20260903100010 70 279 0.0 0.0 0.01 0.78 0.67 99 1018.2
20260903095504 70 279 0.0 0.0 0.01 0.78 0.67 99 1018.2
20260903095005 70 279 0.0 0.0 0.02 0.78 0.67 98 1018.2
20260903094505 70 279 0.0 0.0 0.04 0.78 0.67 98 1018.3
20260903094008 70 279 0.0 0.0 0.08 0.78 0.67 98 1018.4
20260903093505 70 279 0.0 2.0 0.16 0.78 0.67 98 1018.6
20260903092504 70 279 0.0 3.0 0.32 0.77 0.66 98 1018.4
20260903092005 70 279 1.0 3.0 0.32 0.77 0.66 98 1018.9
20260903091007 70 227 0.0 2.0 0.32 0.77 0.66 98 1018.5
20260903090505 70 227 1.0 3.0 0.32 0.77 0.66 98 1018.6
20260903090006 70 181 0.0 3.0 0.32 0.77 0.66 98 1018.4
20260903085505 70 181 0.0 3.0 0.31 0.76 0.65 98 1018.6
20260903085006 71 181 1.0 3.0 0.31 0.76 0.65 98 1018.9
20260903084504 71 305 1.0 2.0 0.29 0.74 0.63 98 1019.7
20260903084006 71 305 1.0 4.0 0.23 0.68 0.57 98 1019.7
20260903083506 71 305 1.0 4.0 0.15 0.60 0.49 98 1019.9
20260903083007 71 306 2.0 6.0 0.08 0.53 0.42 98 1020.0
20260903082504 71 305 2.0 6.0 0.00 0.45 0.34 98 1020.0
20260903081010 71 182 0.0 0.0 0.00 0.45 0.34 98 1018.0
20260903080505 71 182 0.0 0.0 0.00 0.45 0.34 98 1017.9
20260903075504 71 182 0.0 3.0 0.00 0.45 0.34 98 1018.0
20260903075005 71 182 1.0 3.0 0.00 0.45 0.34 98 1018.1
20260903074506 71 182 0.0 0.0 0.00 0.45 0.34 98 1018.4
20260903074006 71 182 0.0 0.0 0.00 0.45 0.34 98 1018.3
20260903073504 71 182 0.0 0.0 0.00 0.45 0.34 98 1018.1
20260903073007 71 182 0.0 0.0 0.00 0.45 0.34 98 1018.1
20260903072010 71 182 0.0 0.0 0.00 0.45 0.34 98 1018.2
20260903071504 71 182 0.0 0.0 0.01 0.45 0.34 98 1018.1
20260903071004 71 182 0.0 0.0 0.02 0.45 0.34 98 1018.3
20260903070504 71 182 0.0 2.0 0.04 0.45 0.34 98 1018.3
20260903070006 71 182 0.0 1.0 0.15 0.45 0.34 98 1018.4
20260903065503 71 182 0.0 1.0 0.21 0.45 0.34 98 1018.4
20260903065008 71 182 0.0 1.0 0.22 0.45 0.34 98 1018.6
20260903064503 71 182 0.0 0.0 0.25 0.45 0.34 98 1018.5
20260903064005 71 182 0.0 2.0 0.31 0.45 0.34 98 1018.5
20260903063504 71 182 0.0 2.0 0.34 0.45 0.34 98 1018.4
20260903062503 71 182 0.0 2.0 0.34 0.45 0.34 98 1018.5
20260903062007 71 182 0.0 2.0 0.34 0.45 0.34 98 1018.4
20260903061503 71 182 1.0 2.0 0.33 0.44 0.33 98 1018.7
20260903061004 71 182 0.0 2.0 0.32 0.43 0.32 98 1018.8
20260903055503 71 293 0.0 0.0 0.13 0.24 0.13 98 1020.1
20260903055005 71 293 0.0 2.0 0.12 0.23 0.12 98 1020.2
20260903054004 71 293 2.0 5.0 0.03 0.14 0.03 98 1020.1
20260903053505 71 267 2.0 3.0 0.00 0.11 0.00 98 1019.5
20260903053006 71 292 0.0 2.0 0.00 0.11 0.00 98 1019.1
20260903052503 71 165 0.0 1.0 0.00 0.11 0.00 98 1018.8
20260903052005 71 165 0.0 1.0 0.00 0.11 0.00 98 1018.7
20260903051503 71 165 0.0 0.0 0.00 0.11 0.00 98 1018.6
20260903051004 71 165 0.0 1.0 0.00 0.11 0.00 98 1018.5
20260903050503 71 165 0.0 1.0 0.00 0.11 0.00 98 1018.7
20260903050006 71 165 0.0 1.0 0.00 0.11 0.00 98 1018.8
20260903045503 71 165 0.0 1.0 0.00 0.11 0.00 98 1018.7
20260903045004 71 165 0.0 1.0 0.00 0.11 0.00 98 1018.8
20260903044504 71 165 0.0 0.0 0.00 0.11 0.00 98 1018.7
20260903044004 71 165 0.0 0.0 0.00 0.11 0.00 98 1018.7
20260903043503 72 165 0.0 1.0 0.00 0.11 0.00 98 1018.7
20260903043007 72 165 0.0 1.0 0.00 0.11 0.00 98 1018.9
20260903042503 72 165 0.0 0.0 0.00 0.11 0.00 98 1018.9
20260903042003 72 165 0.0 5.0 0.00 0.11 0.00 98 1018.9
20260903041508 72 165 1.0 5.0 0.00 0.11 0.00 98 1018.9
20260903040505 72 177 0.0 0.0 0.00 0.11 0.00 98 1019.2
20260903040010 72 177 0.0 0.0 0.00 0.11 0.00 98 1019.2
20260903035505 72 177 0.0 0.0 0.00 0.11 0.11 98 1019.3
20260903034507 72 177 0.0 0.0 0.00 0.11 0.11 98 1019.4
20260903034006 72 177 0.0 0.0 0.00 0.11 0.11 98 1019.5
20260903033505 72 177 0.0 0.0 0.00 0.11 0.11 98 1019.3
20260903032505 72 177 0.0 3.0 0.00 0.11 0.11 98 1019.1
20260903032007 72 177 1.0 2.0 0.00 0.11 0.11 98 1019.2
20260903031008 72 177 1.0 2.0 0.00 0.11 0.11 98 1019.2
20260903030009 72 177 2.0 6.0 0.00 0.11 0.11 98 1019.1
20260903025505 72 189 0.0 3.0 0.00 0.12 0.11 98 1019.4
20260903025007 72 180 0.0 4.0 0.00 0.12 0.11 98 1019.4
20260903024507 72 180 1.0 4.0 0.00 0.12 0.11 98 1019.3
20260903023505 72 173 0.0 2.0 0.00 0.12 0.11 98 1019.5
20260903023007 72 173 0.0 2.0 0.00 0.12 0.11 98 1019.3
20260903022505 72 173 0.0 5.0 0.00 0.12 0.11 98 1019.5
20260903022006 72 186 1.0 7.0 0.00 0.12 0.11 98 1019.4
20260903021506 72 171 0.0 7.0 0.00 0.12 0.11 98 1019.2
20260903020506 72 177 1.0 5.0 0.00 0.12 0.11 98 1018.9
20260903020008 72 174 0.0 5.0 0.00 0.12 0.11 98 1018.9
20260903015006 72 162 1.0 3.0 0.00 0.12 0.11 98 1018.8
20260903014507 72 166 0.0 3.0 0.00 0.12 0.11 98 1019.0
20260903014005 72 166 0.0 3.0 0.00 0.12 0.11 98 1019.1
20260903013505 72 166 1.0 3.0 0.00 0.12 0.11 98 1019.1
20260903013009 72 198 1.0 2.0 0.00 0.12 0.11 98 1019.0
20260903012505 72 198 0.0 2.0 0.00 0.12 0.11 98 1019.1
20260903011507 72 198 0.0 1.0 0.00 0.12 0.11 98 1019.1
20260903011005 72 198 0.0 1.0 0.00 0.12 0.11 98 1019.3
20260903010505 72 198 0.0 0.0 0.00 0.12 0.11 98 1019.3
20260903010012 72 198 0.0 0.0 0.00 0.12 0.11 98 1019.5
20260903005009 72 198 0.0 1.0 0.00 0.52 0.11 98 1019.3
20260903004505 72 198 0.0 0.0 0.00 0.52 0.11 98 1019.2
20260903004006 72 198 0.0 2.0 0.00 0.52 0.11 98 1019.3
20260903003508 72 198 0.0 2.0 0.00 0.52 0.11 98 1019.1
20260903003011 72 198 0.0 4.0 0.00 0.52 0.11 98 1019.1
20260903002505 72 198 1.0 4.0 0.00 0.52 0.11 98 1019.1
20260903002007 72 199 0.0 2.0 0.00 0.52 0.11 98 1019.1
20260903001505 72 199 0.0 2.0 0.00 0.52 0.11 98 1019.1
20260903001007 72 199 0.0 1.0 0.00 0.52 0.11 98 1019.1
20260903000505 72 199 0.0 1.0 0.00 0.52 0.11 98 1019.0
20260902235005 73 199 0.0 0.0 0.00 0.52 0.11 98 1018.8
20260902234506 73 199 0.0 0.0 0.00 0.52 0.11 98 1018.8
20260902234005 73 199 0.0 0.0 0.00 0.52 0.11 98 1018.8
20260902233504 73 199 0.0 0.0 0.00 0.52 0.11 98 1018.9
20260902233006 73 199 0.0 0.0 0.00 0.52 0.11 98 1018.9
20260902232504 73 199 0.0 1.0 0.00 0.52 0.11 98 1018.9
20260902231505 73 199 0.0 1.0 0.00 0.52 0.11 98 1019.0
20260902231005 73 199 0.0 1.0 0.00 0.52 0.11 98 1019.1
20260902230504 73 199 0.0 0.0 0.00 0.52 0.11 98 1019.0
20260902230007 73 199 0.0 0.0 0.00 0.52 0.11 98 1018.9
20260902225504 73 199 0.0 2.0 0.00 0.52 0.11 98 1018.9
20260902225006 73 199 0.0 2.0 0.00 0.52 0.11 98 1018.9
20260902224506 73 199 0.0 2.0 0.00 0.52 0.11 98 1019.0
20260902224005 73 235 0.0 1.0 0.00 0.52 0.11 98 1019.1
20260902223504 73 235 0.0 1.0 0.00 0.52 0.11 98 1019.2
20260902223012 73 235 0.0 1.0 0.00 0.52 0.11 98 1019.3
20260902222504 73 235 0.0 0.0 0.00 0.52 0.11 98 1019.4
20260902222005 73 235 0.0 1.0 0.00 0.52 0.11 98 1019.5
20260902221506 73 235 0.0 1.0 0.00 0.52 0.11 98 1019.6
20260902221005 73 242 0.0 1.0 0.00 0.52 0.11 98 1019.6
20260902220504 73 242 0.0 0.0 0.00 0.52 0.11 98 1019.5
20260902220009 73 242 0.0 2.0 0.00 0.52 0.11 98 1019.5
20260902215504 73 242 0.0 2.0 0.00 0.52 0.11 98 1019.6
20260902214505 73 211 0.0 2.0 0.00 0.52 0.11 98 1019.5
20260902213505 73 215 2.0 6.0 0.00 0.52 0.11 98 1019.2
20260902212505 73 172 0.0 2.0 0.00 0.52 0.11 98 1019.2
20260902212006 73 170 0.0 4.0 0.00 0.52 0.11 98 1019.1
20260902211007 74 162 1.0 4.0 0.00 0.52 0.11 98 1019.0
20260902210505 74 186 2.0 4.0 0.00 0.52 0.11 98 1019.0
20260902210007 74 185 0.0 2.0 0.00 0.52 0.11 98 1019.2
20260902205506 74 186 1.0 2.0 0.00 0.52 0.11 98 1019.3
20260902205006 73 186 1.0 2.0 0.00 0.52 0.11 98 1019.2
20260902204505 73 184 0.0 2.0 0.00 0.52 0.11 97 1019.4
20260902204008 73 185 0.0 2.0 0.00 0.52 0.11 98 1019.4
20260902203504 73 184 0.0 3.0 0.00 0.52 0.11 97 1019.3
20260902203006 74 185 0.0 1.0 0.00 0.52 0.11 98 1019.4
20260902202504 74 185 0.0 0.0 0.00 0.52 0.11 98 1019.3
20260902202007 74 185 0.0 1.0 0.00 0.52 0.11 97 1019.2
20260902201504 74 185 0.0 2.0 0.00 0.52 0.11 97 1019.2
20260902201007 74 185 0.0 4.0 0.00 0.52 0.11 97 1019.2
20260902200504 74 185 1.0 4.0 0.00 0.52 0.11 97 1019.1
20260902195505 74 173 1.0 3.0 0.00 0.52 0.11 97 1019.2
20260902195005 74 192 1.0 3.0 0.00 0.52 0.11 97 1019.2
20260902194504 74 184 0.0 3.0 0.00 0.52 0.11 97 1019.4
20260902194006 74 213 1.0 3.0 0.00 0.52 0.11 97 1019.4
20260902193506 74 202 0.0 3.0 0.00 0.52 0.11 97 1019.3
20260902193005 74 238 0.0 0.0 0.01 0.52 0.11 97 1019.2
20260902192506 74 238 0.0 0.0 0.01 0.52 0.11 97 1019.3
20260902192005 73 238 0.0 2.0 0.01 0.52 0.11 97 1019.3
20260902191504 73 238 1.0 2.0 0.02 0.52 0.11 97 1019.4
20260902191007 73 239 0.0 2.0 0.02 0.52 0.11 96 1019.6
20260902190505 73 239 0.0 0.0 0.03 0.52 0.11 96 1019.7
20260902190005 73 239 0.0 0.0 0.03 0.52 0.11 96 1019.7
20260902185505 73 239 0.0 0.0 0.05 0.52 0.11 96 1019.7
20260902185005 73 239 0.0 0.0 0.06 0.52 0.11 96 1019.8
20260902184504 73 239 0.0 0.0 0.07 0.52 0.11 96 1019.8
20260902184005 73 239 0.0 0.0 0.08 0.52 0.11 96 1019.8
20260902183504 73 239 0.0 0.0 0.10 0.52 0.11 96 1019.9
20260902183005 73 239 0.0 0.0 0.10 0.51 0.10 96 1020.1
20260902182504 73 239 0.0 0.0 0.10 0.51 0.10 96 1020.3
20260902182006 73 239 0.0 0.0 0.10 0.51 0.10 96 1020.3
20260902181504 73 239 0.0 0.0 0.09 0.50 0.09 95 1020.1
20260902181004 73 239 0.0 1.0 0.09 0.50 0.09 96 1020.0
20260902180505 73 239 0.0 1.0 0.08 0.49 0.08 96 1020.1
20260902180007 73 239 0.0 0.0 0.08 0.49 0.08 96 1020.4
20260902175007 73 239 0.0 0.0 0.05 0.46 0.05 95 1020.3
20260902174507 73 239 0.0 0.0 0.04 0.45 0.04 95 1020.7
20260902173510 73 239 0.0 0.0 0.01 0.42 0.01 95 1021.1
20260902172504 73 238 0.0 0.0 0.00 0.41 0.00 95 1021.3
20260902172006 73 238 0.0 0.0 0.00 0.41 0.00 95 1021.3
20260902171504 73 238 0.0 0.0 0.00 0.41 0.00 95 1021.1
20260902171004 74 238 0.0 2.0 0.00 0.41 0.00 95 1021.1
20260902170505 74 238 0.0 2.0 0.00 0.41 0.00 94 1021.2
20260902170005 74 238 0.0 2.0 0.00 0.41 0.00 94 1021.2
20260902165504 74 239 0.0 2.0 0.00 0.41 0.00 94 1021.2
20260902165006 74 239 1.0 1.0 0.00 0.41 0.00 95 1021.1
20260902163505 73 117 0.0 2.0 0.00 0.41 0.00 96 1020.9
20260902163005 73 334 0.0 2.0 0.00 0.41 0.00 96 1020.9
20260902162504 73 198 0.0 0.0 0.00 0.41 0.00 96 1021.0
20260902162006 73 212 0.0 0.0 0.00 0.41 0.00 96 1020.9